Airfield :
LOGIN :

Register | Disclaimer

   EN    FR    IT 

 










Legend :    VFR   Marginal VFR   IFR   Intensive IFR   Very Intensive IFR
Visi :
Ceiling :
>= 8 km
>= 3000ft
5 to 8 km
1000 to 3000 ft
1500m to 5 km
500 to 1000 ft
800 to 1500m
200 to 500 ft
< 800m
< 200 ft
Symbols :   Thunderstorms  Fog  Heavy snow  Heavy precipitations  Wind > 20 kt
SIGMETs :     Misc.  Thunderstorms  Icing  Turbulence  Mountain Waves  Volcanic Ashes







- Airport Elevation : 121 ft
- IATA code : HUY
- Download approach charts


EGNJ - Humberside

CURRENT METAR :
  • 160720Z 21012KT 9999 FEW015 14/10 Q1014

EXPIRED METARs :
  • 160650Z 20012KT 9999 FEW015 13/10 Q1014
  • 160620Z 19010KT CAVOK 12/10 Q1014
  • 160550Z 18010KT CAVOK 12/09 Q1014
  • 160520Z 19008KT CAVOK 10/09 Q1013
  • 160450Z 20006KT 9999 FEW025 08/07 Q1013
  • 160420Z AUTO 19008KT 9999 NCD 08/07 Q1013

TAF TAF EGNJ
Valid from the 16 at 06:00 until the 16 at 15:00 UTC


160501Z 1606/1615 19012KT 9999 FEW025
TEMPO 1606/1608 8000
PROB30 1606/1607 4000 BR
TEMPO 1609/1615 7000 SHRA
PROB30
TEMPO 1610/1615 4000 +SHRA
PROB30
TEMPO 1612/1615 20015G25KT
ATIS : +44 1652 682 020
No reported NOTAMs for that airfield.



MET'MAP, your aeronautical weather chart ! - Copyright ORBIFLY December 2007 - Disclaimer

ORBIFLY MET'MAP TEAM :

Programming & Development : Alexandra Zaïnal
Concept & Development : Baudouin d'Aumeries
Co-Development & Prog : Marc-Olivier Méhu
Technical & hardware support : Manuel Goepfert

Contact : metmap@orbifly.com




SOURCES & CREDITS :

   NOAA